User: anonymous   Login
Location: Unspecified
(0.0000°N, 0.0000°E)
Time: 07:35:22
(UTC+00:00)
Language:

UNISAT 2 - Orbit

View from above orbital plane
View from above orbital plane
View from above satellite
View from above satellite

Ground track
Ground track

The orbit data is extracted from the following two-line orbital elements,

1 27608U 02058D   17289.76995492 +.00000038 +00000-0 +24920-4 0  9998
2 27608 064.5569 039.4322 0028793 005.4023 354.7386 14.77851567798513
Epoch (UTC): 16 October 2017 18:28:44
Eccentricity: 0.0028793
inclination: 64.5569°
perigee height: 616 km
apogee height: 656 km
right ascension of ascending node: 39.4322°
argument of perigee: 5.4023°
revolutions per day: 14.77851567
mean anomaly at epoch: 354.7386°
orbit number at epoch: 79851

The dashed part of the orbit path shows where the satellite is in the earth's shadow,  

DLR